Location: Beccas
(43.4309°N, 0.1528°E)
Time: 08:16:14
(UTC+00:00)

Cosmos 1703 - Pass Details

Date: 25 May 2022
Orbit: 518 x 535 km, 82.5° (Epoch: 06 July)

Event Time Altitude Azimuth Distance (km) Brightness Sun altitude
Exits shadow 01:48:25 14° 129° (SE) 1,573 5.5 -20.7°
Maximum altitude 01:50:36 21° 88° (E) 1,253 5.4 -20.5°
Drops below altitude 10° 01:53:34 10° 39° (NE) 1,796 7.1 -20.2°
Sets 01:56:07 0° 23° (NNE) 2,690 8.4 -20.0°
